SCP
0 0 0 0 1 1 1 0 0 0 0 0 0 0 0 0 0 0 0 0 0 0 0 0 0 0 0 0 0 0 0 0 0 0 0 0 0 0 0 0 0 0 0 0 0 0 0 0 0
0 0 0 0 0 0 0 0 0 0 0 0 0 0 0 0 0 0 0 0 0 0 0 0 0 0 0 0 0 0 0 0 0 0 0 0 0 0 0 0 0 0 0 0 0 0 0 0 0
0 0 0 0 0 0 0 0 0 0 0 0 0 0 0 0 0 0 0 0 0 0 0 0 0 0 0 0 0 0 0 0 0 0 0 0 0 0 0 0 0 0 0 0 0 0 0 0 0
0 0 0 0 0 0 0 0 0 0 0 0 0 0 0 0 0 0 0 0 0 0 0 0 0 0 0 0 0 0 0 0 0 0 0 0 0 0 0 0 0 0 0 0 0 0 0 0 0
0 0 0 0 0 0 0 0 0 0 0 0 0 0 0 0 0 0 0 0 0 0 0 0 0 0 0 0 0 0 0 0 0 0 0 0 0 0 0 0 0 0 0 0 0 0 0 0 0
0 0 0 0 0 0 0 0 0 0 0 0 0 0 0 0 0 0 0 0 0 1 1 0 1 1 1 0 0 0 0 0 0 0 1 1 1 1 1 1 1 1 1 1 1 1 1 1 1
0 0 0 0 0 0 0 0 0 0 0 0 0 0 0 0 0 0 0 0 1 1 1 1 1 1 1 1 1 1 1 1 1 1 1 1 1 1 1 1 1 1 1 1 1 1 1 1 1
0 0 0 0 0 0 0 0 0 0 0 0 0 0 0 0 0 0 0 0 1 1 1 1 1 1 1 1 1 1 1 1 1 1 1 1 1 1 1 1 2 1 1 1 1 1 1 1 1
0 0 0 0 0 0 0 0 0 0 0 0 1 1 1 0 0 0 0 0 1 1 1 1 1 1 1 1 1 1 1 1 1 2 2 2 1 1 2 2 2 2 2 2 2 2 2 2 2
0 0 0 0 0 0 0 0 0 0 1 1 2 2 1 1 0 0 0 1 1 1 1 2 2 2 1 2 2 2 2 2 2 2 2 2 2 1 2 2 3 3 3 2 2 2 2 2 2
0 0 0 0 0 0 0 0 0 1 1 2 2 2 1 1 1 1 1 1 2 2 2 2 3 3 2 2 3 2 3 3 3 2 3 3 2 2 2 2 3 3 3 3 4 5 4 2 2
0 0 0 0 0 0 0 0 0 1 2 3 3 2 2 1 1 1 2 2 3 2 2 3 5 5 4 3 3 3 3 4 4 4 4 3 3 2 2 3 3 3 3 3 5 8 5 3 3
0 0 0 0 0 0 0 0 0 1 2 3 3 2 2 2 2 2 3 4 5 4 4 5 7 7 6 5 5 4 4 4 4 5 5 5 4 3 3 3 3 3 3 3 5 6 5 3 4
0 0 0 0 0 0 0 0 0 1 2 2 2 2 2 2 2 4 5 6 7 6 6 8 10 10 9 7 6 5 4 4 5 5 6 6 5 4 3 3 3 3 3 3 3 3 3 3 4
0 0 0 0 0 0 0 0 0 1 2 2 2 2 2 2 3 5 6 7 8 8 9 10 11 12 11 9 7 5 5 5 6 6 6 5 5 4 3 3 3 3 3 3 3 3 3 3 3
0 0 0 0 0 0 0 0 0 1 1 1 1 2 2 3 4 5 7 8 9 10 13 14 13 14 14 10 8 6 5 6 6 6 4 4 4 3 3 2 2 2 2 2 2 2 3 3 3
0 0 0 0 0 0 0 0 0 1 1 1 1 2 3 5 6 8 10 10 11 14 18 18 16 15 14 11 8 6 6 7 6 4 3 3 3 2 2 2 2 2 2 2 2 2 2 2 3
0 0 0 0 0 0 0 0 0 1 1 1 2 4 6 7 9 11 14 14 16 19 22 22 19 15 13 11 8 6 6 6 5 3 3 3 2 1 1 1 1 1 1 1 1 1 2 2 2
0 0 0 0 0 0 0 0 0 1 2 4 6 8 9 10 10 13 16 19 20 20 21 22 18 13 11 10 8 6 5 4 3 2 2 2 1 1 1 1 1 1 1 1 1 1 1 1 2
0 0 0 0 0 0 0 0 0 2 5 8 10 11 10 10 11 12 15 17 19 20 18 16 14 12 10 8 6 5 4 3 2 2 3 2 2 1 1 1 1 1 1 1 1 1 1 1 1
0 0 0 0 0 0 0 0 1 3 6 9 9 8 8 8 9 10 11 12 14 16 14 12 11 11 10 7 5 4 4 4 3 3 3 3 3 3 3 2 1 1 1 1 1 1 1 1 1
0 0 0 0 0 0 0 0 1 3 5 6 6 5 5 6 7 7 7 7 8 9 10 10 11 10 9 7 5 5 5 4 3 3 4 4 4 4 4 4 3 2 2 1 1 1 1 1 1
0 0 0 0 0 0 0 0 1 2 4 4 4 4 4 4 4 4 4 4 4 5 6 8 9 10 9 7 7 7 6 5 5 4 4 4 5 5 5 5 5 4 3 2 2 1 1 1 1
0 0 0 0 0 0 0 0 1 2 3 3 4 4 4 3 3 3 4 3 3 4 4 6 8 9 9 8 8 9 8 7 6 5 5 5 5 5 6 7 7 6 5 3 3 2 2 1 1
0 0 0 0 1 1 0 1 1 2 3 3 4 4 3 3 2 3 3 3 3 3 4 5 6 7 8 8 8 9 9 8 7 6 6 6 6 6 6 7 8 7 6 5 4 3 2 2 1
0 0 0 0 0 1 1 1 2 2 3 3 3 3 2 2 2 2 2 2 2 2 2 3 4 5 6 6 7 8 9 8 8 8 8 8 7 6 6 7 7 6 5 5 4 3 3 2 2
0 0 0 0 0 0 1 1 2 3 2 2 2 2 1 1 1 1 1 1 1 1 1 2 2 3 3 4 5 6 6 7 7 8 9 9 8 7 7 7 6 5 4 4 4 3 3 2 2
0 0 0 0 0 0 0 1 2 3 2 2 1 1 1 1 1 0 0 0 0 0 1 1 1 1 1 2 2 3 4 4 5 6 7 7 8 7 7 6 6 5 4 4 3 3 3 2 2
0 0 0 0 0 0 0 1 2 2 2 1 1 1 1 1 0 0 0 0 0 0 0 0 1 1 1 1 1 1 2 2 3 3 4 5 6 6 5 5 5 4 4 4 3 3 3 3 2
0 0 0 0 0 0 1 1 2 2 2 1 1 1 1 0 0 0 0 0 0 0 0 0 0 0 0 1 1 1 1 1 1 2 2 3 4 4 4 4 4 4 4 4 4 3 3 3 3
Wind_Speed
9 11 10 7 7 7 6 12 13 13 12 10 9 10 19 16 13 14 15 22 24 21 19 17 16 15 14 14 14 14 14 13 12 11 11 10 10 10 9 9 9 9 9 8 8 7 7 7 7
10 12 9 6 7 1 8 11 11 10 7 7 8 12 18 16 16 16 17 21 23 20 18 16 17 15 15 14 14 14 13 13 12 11 10 10 9 9 9 8 8 7 7 7 7 6 6 6 6
11 13 7 6 4 1 7 10 8 10 9 9 13 16 14 13 15 15 17 21 21 18 16 18 18 16 15 14 13 13 13 12 11 11 10 9 9 8 8 7 7 6 6 6 6 6 6 6 5
9 7 8 7 2 1 6 6 5 10 9 9 14 13 12 10 12 17 18 20 20 18 17 18 17 16 14 13 13 12 12 11 11 10 9 9 8 8 7 7 6 6 6 6 6 6 6 6 6
9 8 11 5 2 2 4 4 6 9 7 13 18 16 13 12 17 19 17 19 18 18 18 18 17 16 14 13 12 11 11 10 10 9 9 8 8 7 7 7 7 7 7 7 7 7 7 8 8
7 9 11 2 3 5 3 5 7 7 7 13 19 17 12 14 16 16 17 17 18 20 19 17 18 16 15 14 13 12 11 10 10 9 9 9 8 8 8 8 9 9 9 9 9 9 9 10 10
10 13 16 8 4 7 2 5 9 4 4 6 16 16 13 15 16 16 15 15 18 20 19 16 15 14 15 14 13 13 12 11 10 10 10 10 10 10 10 11 11 11 11 11 11 11 11 11 11
10 12 18 11 7 7 4 3 8 6 3 1 8 12 15 17 16 16 14 13 16 20 19 16 16 14 13 13 14 14 13 12 12 11 11 11 12 12 14 13 14 14 14 14 14 14 13 13 13
14 12 15 12 2 2 1 3 4 6 8 6 2 12 20 20 18 16 13 12 13 16 17 17 17 15 14 14 15 15 14 13 12 11 13 12 9 11 12 18 18 18 17 16 16 15 14 13 14
10 12 16 9 6 0 1 5 1 2 4 2 10 13 14 17 17 16 14 14 12 12 15 14 16 15 13 12 12 10 11 11 10 9 11 9 8 7 10 10 19 20 20 19 17 16 14 12 9
13 16 16 12 8 6 6 7 6 7 3 7 11 7 1 10 13 14 14 13 11 9 10 14 13 12 10 6 10 7 6 7 11 10 8 7 5 5 6 3 7 11 14 11 11 12 9 9 8
14 14 14 11 11 9 11 12 9 6 6 16 18 12 10 13 14 15 14 14 13 10 9 12 13 10 6 4 5 5 4 5 5 6 7 5 3 3 3 3 2 3 4 6 5 5 9 10 9
11 13 16 14 11 11 12 12 13 7 6 16 21 21 20 20 17 17 15 15 14 10 9 9 11 10 6 2 1 3 2 3 3 4 3 3 2 2 2 2 2 4 3 2 3 4 4 4 5
13 15 14 13 13 13 14 13 15 12 8 12 17 18 21 20 17 13 13 12 15 13 11 10 11 11 8 5 3 2 2 2 1 2 2 2 2 1 2 3 3 4 4 4 3 5 4 4 4
13 15 16 17 18 17 14 15 16 15 9 7 10 13 15 14 12 12 14 14 16 14 11 10 11 12 10 8 7 5 5 3 2 3 3 3 2 0 1 3 3 3 3 4 4 5 5 5 6
14 16 18 20 20 16 12 14 15 10 6 3 6 9 11 9 11 12 14 12 13 13 12 11 11 13 10 6 5 3 3 3 2 2 2 4 2 1 1 3 3 2 3 3 4 5 4 4 4
17 18 20 19 18 12 10 12 12 4 3 4 6 9 7 8 8 6 9 10 9 8 9 8 5 10 9 6 3 2 1 2 1 1 3 4 3 2 2 2 3 3 3 3 5 3 2 4 4
12 13 16 16 7 4 7 12 11 3 5 6 5 5 3 4 3 2 3 4 4 8 8 7 7 9 8 6 3 1 1 2 1 2 4 4 1 2 3 3 3 4 4 3 3 5 5 4 5
13 13 13 8 4 1 7 12 13 7 6 6 3 2 3 4 3 5 7 5 5 8 8 7 7 8 5 3 2 2 2 1 1 1 5 4 1 2 1 3 3 4 3 4 5 4 6 5 4
11 10 11 10 6 6 9 13 14 12 7 3 2 4 8 8 8 9 9 8 8 10 9 6 6 4 4 3 1 1 1 0 0 1 3 3 2 0 3 2 3 4 4 5 5 4 4 5 5
8 9 9 10 9 10 13 16 16 10 5 3 7 10 12 11 8 7 9 9 9 8 6 4 4 2 2 3 0 0 0 1 1 2 2 3 2 1 2 2 3 3 4 4 4 4 5 5 5
8 7 10 11 12 12 15 12 5 3 3 7 9 12 13 14 14 13 13 12 10 9 7 4 4 2 1 1 2 2 2 3 2 2 2 3 3 4 3 3 4 3 3 4 5 3 4 5 6
10 10 11 14 15 16 14 13 2 6 8 8 9 11 13 14 15 13 13 11 10 10 8 7 5 3 3 2 3 3 5 5 4 2 1 2 4 5 6 5 4 3 4 5 4 4 5 4 5
9 12 13 12 9 10 13 13 4 5 9 10 9 11 13 13 13 12 12 11 11 10 10 10 10 9 9 7 6 5 5 6 7 6 5 3 4 4 6 6 4 4 4 4 4 5 6 5 6
8 10 9 8 2 4 6 9 5 5 7 10 11 11 11 12 12 11 11 10 9 10 10 10 11 10 9 9 8 8 7 6 6 6 6 5 4 4 3 2 2 3 4 4 5 5 6 6 6
9 10 10 12 12 5 11 9 4 9 9 10 11 10 10 10 9 9 9 8 8 8 8 8 8 8 8 8 7 6 7 6 5 6 6 6 5 5 5 3 3 4 5 6 5 5 6 5 5
7 8 13 13 14 13 3 7 8 10 8 6 6 8 8 7 7 7 7 6 6 6 6 6 6 6 6 6 7 5 5 5 6 6 6 5 5 7 7 6 5 5 6 6 6 5 6 5 5
6 8 7 8 10 12 13 5 3 6 5 2 3 6 7 7 8 8 7 6 6 5 4 4 4 5 5 5 5 6 6 6 6 6 6 6 6 7 8 8 7 6 6 6 6 6 6 5 5
8 8 7 7 9 11 14 5 6 5 3 2 4 6 6 8 9 9 9 8 8 7 7 6 6 6 5 5 5 5 5 6 6 6 6 6 6 7 7 8 8 8 8 7 6 7 6 6 5
11 9 7 7 9 10 11 4 7 6 4 4 5 6 7 8 9 10 11 10 9 9 8 7 7 7 7 7 6 6 6 7 7 8 7 7 8 8 8 8 8 9 9 7 7 7 6 5 5
Wind_Direction
244 239 231 249 249 242 68 65 59 59 60 62 43 45 61 57 71 94 113 112 114 123 131 135 134 135 136 137 138 139 140 139 139 139 138 135 132 128 126 125 124 123 123 123 122 118 114 112 111
272 258 243 247 265 321 75 70 69 66 65 79 72 72 79 76 92 105 111 116 120 128 138 139 139 140 140 141 142 143 143 143 143 144 144 144 142 140 139 136 135 134 133 133 134 133 131 131 132
264 259 261 246 275 47 82 83 90 95 81 86 76 61 74 96 106 111 121 124 124 131 136 136 146 144 145 145 145 146 147 147 148 149 151 152 152 153 152 151 151 152 151 152 153 152 150 152 155
267 248 230 252 297 46 96 96 102 96 93 99 97 85 82 94 115 122 132 125 124 133 136 141 148 147 148 149 150 151 151 152 154 156 159 161 165 169 170 171 174 177 177 178 180 180 178 179 182
258 256 256 253 268 253 121 102 79 81 85 92 95 98 98 106 115 129 135 128 137 138 135 144 150 151 153 154 156 157 158 160 163 166 170 175 180 187 191 194 197 201 204 205 206 206 204 202 203
271 265 276 270 249 263 145 118 82 86 102 114 114 111 109 122 128 142 140 144 145 136 135 144 152 155 158 161 164 166 168 170 174 179 184 191 198 205 211 214 215 217 220 222 224 224 222 220 217
271 291 292 277 199 261 201 137 116 164 142 122 120 119 134 144 146 149 150 153 146 136 134 149 156 161 165 169 172 175 177 181 186 192 198 205 213 219 224 226 226 226 226 227 230 231 232 231 229
277 289 289 280 192 227 208 187 144 150 113 134 136 130 148 146 155 149 155 156 145 136 142 155 159 163 169 175 181 183 185 189 195 202 209 215 223 229 231 231 227 229 229 228 230 233 234 234 234
268 269 276 298 311 225 245 245 135 151 160 196 58 127 144 150 154 150 162 160 150 143 146 162 160 165 176 179 179 184 190 196 200 209 216 221 230 232 226 226 225 223 225 226 227 231 234 235 236
251 265 276 325 350 15 255 278 235 196 189 144 48 80 130 151 154 162 167 161 153 148 156 165 160 165 183 184 160 182 190 191 203 210 202 208 226 248 256 222 215 218 221 224 226 230 234 234 240
256 265 285 312 318 318 295 268 231 224 181 101 82 45 192 168 164 171 169 162 153 163 173 158 149 158 184 162 159 185 190 173 195 214 200 199 222 245 259 239 206 215 219 223 226 226 230 232 232
257 274 290 295 306 314 300 297 291 266 143 133 130 147 231 218 185 182 173 161 156 177 186 161 146 156 182 164 170 172 181 167 190 185 202 190 205 257 285 301 301 213 214 211 229 212 218 225 237
274 271 275 276 275 278 280 284 287 284 145 137 142 165 200 217 198 186 174 161 158 178 186 157 144 146 154 151 256 187 171 166 167 153 175 162 191 239 290 308 312 299 293 271 240 259 259 248 249
278 286 284 284 280 271 267 267 267 259 204 158 157 178 203 215 203 185 164 165 162 175 183 160 151 146 152 156 182 280 244 164 192 132 133 141 182 212 270 280 274 273 280 291 288 279 274 268 261
262 271 273 266 257 252 254 259 259 255 234 183 185 192 209 212 201 180 174 177 170 175 173 160 162 154 161 170 183 197 215 180 151 144 161 167 166 132 287 278 268 261 268 267 262 264 257 256 254
265 258 257 254 247 240 241 262 268 263 235 213 235 225 208 193 208 186 174 176 175 174 165 167 176 159 159 164 178 211 204 129 145 170 149 111 79 41 329 289 290 322 297 273 258 249 252 255 259
244 244 250 252 240 230 242 267 272 256 263 248 245 247 217 181 201 179 163 171 176 150 145 148 138 133 138 141 159 220 98 99 185 148 95 88 55 1 322 315 306 311 295 289 299 320 309 292 280
284 262 243 244 223 192 257 274 277 279 279 268 260 248 213 169 182 165 126 149 131 110 113 123 120 115 127 142 161 175 137 171 189 116 103 93 52 15 22 311 334 344 312 310 329 328 312 291 273
315 313 313 318 56 41 280 285 288 283 265 273 294 346 42 61 30 57 51 45 64 81 90 110 114 115 127 141 169 164 156 192 149 128 109 102 82 32 335 295 336 311 306 334 320 311 309 301 291
284 290 294 304 322 295 280 276 275 271 257 266 322 46 62 62 36 38 47 47 56 62 57 72 84 108 125 111 106 83 94 226 234 86 129 152 157 102 288 17 330 320 333 301 288 307 303 300 305
301 316 319 319 314 288 274 265 258 254 241 94 54 50 51 52 56 47 45 42 47 59 66 71 76 78 60 91 179 182 85 307 265 229 184 153 146 204 249 281 281 303 295 301 335 303 294 304 308
309 329 314 300 288 278 277 280 267 176 122 85 67 59 55 51 42 45 51 46 37 38 36 36 88 85 58 28 305 299 269 261 252 220 200 149 192 214 213 226 246 265 284 295 289 328 336 306 295
304 307 290 283 279 277 278 276 237 120 114 79 66 68 68 65 59 47 51 51 45 38 34 18 33 40 25 350 316 312 295 290 289 287 233 175 231 216 207 209 214 238 258 271 290 295 283 283 284
305 298 286 284 296 304 329 326 266 145 136 125 104 83 76 73 71 61 56 51 47 43 36 31 28 31 23 11 351 332 310 304 305 311 308 283 258 234 213 203 195 219 250 272 280 279 279 274 276
310 299 297 298 276 229 240 272 263 123 109 108 101 88 80 76 73 69 61 53 50 44 37 36 29 27 25 22 13 4 353 329 311 306 298 291 286 281 259 227 189 231 258 266 265 267 269 272 272
308 298 299 307 306 271 198 214 129 83 77 84 89 86 77 75 74 71 65 59 49 45 38 34 31 25 18 17 8 10 7 354 342 339 323 312 309 310 326 326 275 254 258 267 269 274 273 272 274
299 314 322 312 305 308 276 111 89 71 52 50 72 77 64 53 51 52 49 42 36 31 33 26 22 12 4 360 348 353 4 350 345 338 329 327 325 314 322 317 297 279 268 265 269 270 273 278 278
272 305 316 317 318 317 318 54 136 139 145 131 41 42 36 21 15 14 10 8 4 355 359 4 356 346 335 333 333 337 344 333 333 326 326 329 328 324 317 306 298 286 274 265 262 268 269 276 283
306 304 318 315 316 316 314 18 77 103 94 74 60 40 20 0 354 347 342 340 334 329 335 344 337 327 320 318 317 315 311 315 314 307 309 316 315 313 308 303 295 286 276 266 260 262 269 276 283
314 310 313 309 309 305 308 51 49 63 52 33 14 360 350 339 330 326 323 322 320 320 321 319 313 306 301 300 296 291 292 294 292 292 299 301 300 299 298 299 295 285 278 273 265 261 266 273 287